GW0719 Weather Reports


time (UTC)temp
C
wind
direction
speed
KPH
gust
KPH
rain 1hr
cm
rain 24hr
cm
rain mn
cm
humidity
%
barometer
mb
20260503014050 16 49 0.0 0.0 0.00 0.00 0.00 10 1017.2
20260503013547 17 46 0.0 0.0 0.00 0.00 0.00 10 1016.9
20260503013045 17 41 0.0 0.0 0.00 0.00 0.00 10 1016.9
20260503012542 17 27 0.0 0.0 0.00 0.00 0.00 10 1017.0
20260503012038 18 43 0.0 0.0 0.00 0.00 0.00 10 1017.0
20260503011535 18 46 0.0 0.0 0.00 0.00 0.00 10 1017.0
20260503011032 17 50 0.0 0.0 0.00 0.00 0.00 10 1017.4
20260503010528 17 53 0.0 0.0 0.00 0.00 0.00 10 1017.3
20260503010026 17 36 0.0 0.0 0.00 0.00 0.00 10 1017.5
20260503005523 17 338 0.0 0.0 0.00 0.00 0.00 10 1017.5
20260503005020 17 27 0.0 0.0 0.00 0.00 0.00 10 1017.4
20260503004516 17 22 0.0 0.0 0.00 0.00 0.00 10 1017.3
20260503004015 18 17 0.0 0.0 0.00 0.00 0.00 10 1017.5
20260503003511 17 35 0.0 0.0 0.00 0.00 0.00 10 1017.7
20260503003008 17 322 0.0 0.0 0.00 0.00 0.00 10 1017.5
20260503002505 18 39 0.0 0.0 0.00 0.00 0.00 10 1017.5
20260503002001 18 52 0.0 0.0 0.00 0.00 0.00 10 1017.6
20260503001458 17 49 0.0 0.0 0.00 0.00 0.00 10 1017.8
20260503000955 17 153 0.0 0.0 0.00 0.00 0.00 10 1017.6
20260503000453 18 212 0.0 0.0 0.00 0.00 0.00 10 1017.6
20260502235950 18 301 0.0 0.0 0.00 0.00 0.00 10 1017.9
20260502235447 17 359 0.0 0.0 0.00 0.00 0.00 10 1017.8
20260502234944 17 327 0.0 0.0 0.00 0.00 0.00 10 1017.7
20260502234440 18 0 0.0 1.6 0.00 0.00 0.00 10 1017.9
20260502233938 19 316 0.0 0.0 0.00 0.00 0.00 10 1017.9
20260502233433 18 76 0.0 0.0 0.00 0.00 0.00 10 1017.9
20260502232930 18 241 0.0 0.0 0.00 0.00 0.00 10 1017.9
20260502232426 17 71 0.0 0.0 0.00 0.00 0.00 10 1018.1
20260502231923 17 70 0.0 0.0 0.00 0.00 0.00 10 1018.1
20260502231420 17 45 0.0 0.0 0.00 0.00 0.00 10 1018.3
20260502230918 18 51 0.0 0.0 0.00 0.00 0.00 10 1018.5
20260502230411 18 47 0.0 0.0 0.00 0.00 0.00 10 1018.3
20260502225909 17 62 0.0 0.0 0.00 0.00 0.00 10 1018.5
20260502225404 18 64 0.0 0.0 0.00 0.00 0.00 10 1018.4
20260502224902 17 27 0.0 0.0 0.00 0.00 0.00 10 1018.6
20260502224357 17 352 0.0 0.0 0.00 0.00 0.00 10 1018.8
20260502223855 18 319 0.0 0.0 0.00 0.00 0.00 10 1018.5
20260502223353 17 75 0.0 0.0 0.00 0.00 0.00 10 1018.7
20260502222850 17 120 0.0 1.6 0.00 0.00 0.00 10 1019.0
20260502222348 17 30 0.0 1.6 0.00 0.00 0.00 10 1018.8
20260502221843 17 34 0.0 1.6 0.00 0.00 0.00 10 1019.1
20260502221340 17 61 0.0 1.6 0.00 0.00 0.00 10 1019.0
20260502220837 17 28 0.0 1.6 0.00 0.00 0.00 10 1019.2
20260502220333 17 46 0.0 1.6 0.00 0.00 0.00 10 1019.1
20260502215829 17 39 0.0 3.2 0.00 0.00 0.00 10 1019.0
20260502215327 17 39 0.0 0.0 0.00 0.00 0.00 10 1019.2
20260502214823 17 3 0.0 0.0 0.00 0.00 0.00 10 1019.5
20260502214320 17 15 0.0 0.0 0.00 0.00 0.00 10 1019.4
20260502213812 17 6 0.0 3.2 0.00 0.00 0.00 10 1019.5
20260502213309 17 20 0.0 0.0 0.00 0.00 0.00 10 1019.6
20260502212808 17 40 0.0 0.0 0.00 0.00 0.00 10 1019.6
20260502212306 17 41 0.0 0.0 0.00 0.00 0.00 10 1019.9
20260502211803 17 3 0.0 0.0 0.00 0.00 0.00 10 1019.6
20260502211258 16 38 0.0 0.0 0.00 0.00 0.00 10 1019.8
20260502210756 17 67 0.0 11.3 0.00 0.00 0.00 10 1019.4
20260502210253 17 39 0.0 0.0 0.00 0.00 0.00 10 1019.8
20260502205750 17 19 0.0 0.0 0.00 0.00 0.00 10 1019.9
20260502205246 16 53 0.0 0.0 0.00 0.00 0.00 10 1019.9
20260502204744 17 74 0.0 0.0 0.00 0.00 0.00 10 1020.1
20260502204241 17 125 0.0 0.0 0.00 0.00 0.00 10 1020.0
20260502203738 17 21 0.0 0.0 0.00 0.00 0.00 10 1020.2
20260502203236 17 75 0.0 0.0 0.00 0.00 0.00 10 1020.3
20260502202730 17 46 0.0 0.0 0.00 0.00 0.00 10 1020.3
20260502202229 17 119 0.0 0.0 0.00 0.00 0.00 10 1020.3
20260502201726 16 48 0.0 0.0 0.00 0.00 0.00 10 1020.3
20260502201222 16 55 0.0 0.0 0.00 0.00 0.00 10 1020.6
20260502200718 16 22 0.0 0.0 0.00 0.00 0.00 10 1020.6
20260502200215 16 36 0.0 0.0 0.00 0.00 0.00 10 1020.7
20260502195713 15 47 0.0 0.0 0.00 0.00 0.00 10 1020.8
20260502195209 16 80 0.0 0.0 0.00 0.00 0.00 10 1020.9
20260502194706 16 357 0.0 0.0 0.00 0.00 0.00 10 1021.0
20260502194203 15 51 0.0 0.0 0.00 0.00 0.00 10 1020.8
20260502193659 15 40 0.0 0.0 0.00 0.00 0.00 10 1020.8
20260502193156 15 57 0.0 0.0 0.00 0.00 0.00 10 1021.0
20260502192651 15 50 0.0 0.0 0.00 0.00 0.00 10 1021.0
20260502192149 15 41 0.0 0.0 0.00 0.00 0.00 10 1021.1
20260502191645 15 38 0.0 0.0 0.00 0.00 0.00 10 1021.4
20260502191143 15 32 0.0 0.0 0.00 0.00 0.00 10 1021.6
20260502190640 15 25 0.0 0.0 0.00 0.00 0.00 10 1021.4
20260502190138 15 51 0.0 0.0 0.00 0.00 0.00 10 1021.3
20260502185632 15 59 0.0 0.0 0.00 0.00 0.00 10 1021.3
20260502185130 15 44 0.0 0.0 0.00 0.00 0.00 10 1021.2
20260502184626 15 47 0.0 0.0 0.00 0.00 0.00 10 1021.4
20260502184121 15 42 0.0 0.0 0.00 0.00 0.00 10 1021.6
20260502183618 15 72 0.0 0.0 0.00 0.00 0.00 10 1021.6
20260502183114 15 41 0.0 0.0 0.00 0.00 0.00 10 1021.8
20260502182609 15 44 0.0 0.0 0.00 0.00 0.00 10 1021.6
20260502182105 15 64 0.0 0.0 0.00 0.00 0.00 10 1021.6
20260502181603 15 48 0.0 0.0 0.00 0.00 0.00 10 1021.3
20260502181102 15 57 0.0 0.0 0.00 0.00 0.00 10 1021.6
20260502180558 15 46 0.0 0.0 0.00 0.00 0.00 10 1021.9
20260502170518 15 35 0.0 3.2 0.00 0.00 0.00 10 1021.1
20260502164002 15 56 0.0 0.0 0.00 0.00 0.00 10 1021.6
20260502163457 15 46 0.0 1.6 0.00 0.00 0.00 10 1021.6
20260502162954 15 33 0.0 0.0 0.00 0.00 0.00 10 1021.7
20260502162451 15 39 0.0 0.0 0.00 0.00 0.00 10 1021.3
20260502161948 15 19 0.0 1.6 0.00 0.00 0.00 10 1021.2
20260502161445 15 5 0.0 3.2 0.00 0.00 0.00 10 1021.2
20260502160943 15 29 0.0 0.0 0.00 0.00 0.00 10 1021.8
20260502160441 14 43 0.0 1.6 0.00 0.00 0.00 10 1021.3
20260502151924 13 36 0.0 0.0 0.00 0.00 0.00 10 1021.0
20260502151420 13 59 0.0 0.0 0.00 0.00 0.00 10 1021.3
20260502150918 14 22 0.0 0.0 0.00 0.00 0.00 10 1021.2
20260502150414 14 35 0.0 0.0 0.00 0.00 0.00 10 1021.3
20260502130300 8 50 0.0 0.0 0.00 0.00 0.00 10 1021.0
20260502123746 6 22 0.0 0.0 0.00 0.00 0.00 10 1020.7
20260502123243 6 28 0.0 0.0 0.00 0.00 0.00 10 1020.7
20260502122739 6 28 0.0 0.0 0.00 0.00 0.00 10 1020.6
20260502122235 6 19 0.0 0.0 0.00 0.00 0.00 10 1020.7
20260502121734 5 26 0.0 0.0 0.00 0.00 0.00 10 1020.6
20260502121231 5 38 0.0 0.0 0.00 0.00 0.00 10 1020.2
20260502120728 5 42 0.0 0.0 0.00 0.00 0.00 10 1020.3
20260502120224 5 22 0.0 0.0 0.00 0.00 0.00 10 1020.2
20260502115722 6 44 0.0 0.0 0.00 0.00 0.00 10 1020.1
20260502115219 6 39 0.0 0.0 0.00 0.00 0.00 10 1020.1
20260502114715 6 49 0.0 0.0 0.00 0.00 0.00 10 1020.2
20260502114212 6 42 0.0 0.0 0.00 0.00 0.00 10 1020.1
20260502113709 7 44 0.0 0.0 0.00 0.00 0.00 10 1020.2
20260502113207 7 46 0.0 0.0 0.00 0.00 0.00 10 1020.1
20260502112705 6 35 0.0 0.0 0.00 0.00 0.00 10 1020.2
20260502112203 6 32 0.0 0.0 0.00 0.00 0.00 10 1019.9
20260502111659 6 36 0.0 0.0 0.00 0.00 0.00 10 1020.0
20260502111157 7 24 0.0 0.0 0.00 0.00 0.00 10 1020.0
20260502110655 7 44 0.0 0.0 0.00 0.00 0.00 10 1019.8
20260502110152 7 45 0.0 0.0 0.00 0.00 0.00 10 1019.7
20260502105649 7 33 0.0 0.0 0.00 0.00 0.00 10 1019.4
20260502105146 7 41 0.0 0.0 0.00 0.00 0.00 10 1019.1
20260502104643 7 36 0.0 0.0 0.00 0.00 0.00 10 1018.8
20260502104141 8 39 0.0 0.0 0.00 0.00 0.00 10 1018.9
20260502103638 8 40 0.0 0.0 0.00 0.00 0.00 10 1019.1
20260502103136 8 31 0.0 0.0 0.00 0.00 0.00 10 1019.0
20260502102632 8 32 0.0 0.0 0.00 0.00 0.00 10 1018.8
20260502102129 8 43 0.0 0.0 0.00 0.00 0.00 10 1018.7
20260502101627 8 36 0.0 0.0 0.00 0.00 0.00 10 1018.6
20260502101125 7 33 0.0 0.0 0.00 0.00 0.00 10 1018.5
20260502100624 7 36 0.0 3.2 0.00 0.00 0.00 10 1018.6
20260502100121 7 46 0.0 0.0 0.00 0.00 0.00 10 1018.4
20260502091055 10 41 0.0 3.2 0.00 0.00 0.00 10 1017.8
20260502090552 10 46 0.0 0.0 0.00 0.00 0.00 10 1017.8
20260502071446 8 61 0.0 0.0 0.00 0.00 0.00 10 1017.0
20260502070944 8 13 0.0 0.0 0.00 0.00 0.00 10 1017.2
20260502070442 8 350 0.0 0.0 0.00 0.00 0.00 10 1017.0
20260502065941 8 341 0.0 0.0 0.00 0.00 0.00 10 1017.0
20260502065439 9 2 0.0 0.0 0.00 0.00 0.00 10 1016.9
20260502064937 10 353 0.0 0.0 0.00 0.00 0.00 10 1016.8
20260502064434 10 339 0.0 0.0 0.00 0.00 0.00 10 1016.9
20260502063931 8 358 0.0 0.0 0.00 0.00 0.00 10 1017.2
20260502063429 8 3 0.0 0.0 0.00 0.00 0.00 10 1016.7
20260502062926 8 31 0.0 0.0 0.00 0.00 0.00 10 1016.7
20260502062423 8 24 0.0 0.0 0.00 0.00 0.00 10 1016.9
20260502061922 8 24 0.0 0.0 0.00 0.00 0.00 10 1017.0
20260502061420 8 30 0.0 0.0 0.00 0.00 0.00 10 1016.7
20260502060915 7 35 0.0 0.0 0.00 0.00 0.00 10 1016.9
20260502060410 8 42 0.0 0.0 0.00 0.00 0.00 10 1016.7
20260502055908 8 12 0.0 0.0 0.00 0.00 0.00 10 1016.7
20260502055406 8 25 0.0 0.0 0.00 0.00 0.00 10 1016.7
20260502054900 10 25 0.0 0.0 0.00 0.00 0.00 10 1016.9
20260502054357 10 5 0.0 0.0 0.00 0.00 0.00 10 1016.9
20260502053854 10 39 0.0 0.0 0.00 0.00 0.00 10 1016.7
20260502053351 9 39 0.0 0.0 0.00 0.00 0.00 10 1016.8
20260502052849 10 57 0.0 0.0 0.00 0.00 0.00 10 1016.9
20260502052347 10 45 0.0 0.0 0.00 0.00 0.00 10 1016.9
20260502051844 8 21 0.0 0.0 0.00 0.00 0.00 10 1016.7
20260502051343 8 27 0.0 0.0 0.00 0.00 0.00 10 1016.8
20260502050839 8 32 0.0 0.0 0.00 0.00 0.00 10 1016.8
20260502050336 8 335 0.0 0.0 0.00 0.00 0.00 10 1016.6
20260502045833 8 345 0.0 0.0 0.00 0.00 0.00 10 1016.6
20260502045329 8 312 0.0 0.0 0.00 0.00 0.00 10 1016.8
20260502044827 9 326 0.0 0.0 0.00 0.00 0.00 10 1016.7
20260502044322 9 315 0.0 0.0 0.00 0.00 0.00 10 1016.9
20260502043820 8 302 0.0 0.0 0.00 0.00 0.00 10 1016.7
20260502043317 10 356 0.0 0.0 0.00 0.00 0.00 10 1016.7
20260502042817 10 350 0.0 0.0 0.00 0.00 0.00 10 1016.8
20260502042314 11 39 0.0 0.0 0.00 0.00 0.00 10 1016.5
20260502041811 12 49 0.0 0.0 0.00 0.00 0.00 10 1016.5
20260502041309 12 47 0.0 0.0 0.00 0.00 0.00 10 1016.6
20260502040806 11 35 0.0 0.0 0.00 0.00 0.00 10 1016.6
20260502040303 10 42 0.0 0.0 0.00 0.00 0.00 10 1016.7
20260502035759 11 22 0.0 0.0 0.00 0.00 0.00 10 1016.2
20260502035255 11 34 0.0 0.0 0.00 0.00 0.00 10 1016.5
20260502034753 12 49 0.0 0.0 0.00 0.00 0.00 10 1016.4
20260502034251 13 28 0.0 0.0 0.00 0.00 0.00 10 1016.5
20260502033749 15 25 0.0 0.0 0.00 0.00 0.00 10 1016.7
20260502033246 15 41 0.0 0.0 0.00 0.00 0.00 10 1016.1
20260502032743 14 36 0.0 0.0 0.00 0.00 0.00 10 1016.2
20260502032239 15 60 0.0 0.0 0.00 0.00 0.00 10 1016.3
20260502031737 15 43 0.0 0.0 0.00 0.00 0.00 10 1016.1
20260502031235 16 76 0.0 0.0 0.00 0.00 0.00 10 1015.9
20260502030733 15 38 0.0 0.0 0.00 0.00 0.00 10 1016.1
20260502030231 15 43 0.0 0.0 0.00 0.00 0.00 10 1016.1
20260502025728 16 19 0.0 0.0 0.00 0.00 0.00 10 1015.9
20260502025226 16 240 0.0 0.0 0.00 0.00 0.00 10 1015.8
20260502024723 16 308 0.0 0.0 0.00 0.00 0.00 10 1015.8
20260502024221 15 68 0.0 0.0 0.00 0.00 0.00 10 1015.5
20260502023719 18 56 0.0 0.0 0.00 0.00 0.00 10 1015.8
20260502023216 18 26 0.0 0.0 0.00 0.00 0.00 10 1015.8
20260502022714 18 42 0.0 0.0 0.00 0.00 0.00 10 1015.9
20260502022210 18 51 0.0 0.0 0.00 0.00 0.00 10 1015.6
20260502021707 17 11 0.0 0.0 0.00 0.00 0.00 10 1015.9
20260502021204 18 37 0.0 0.0 0.00 0.00 0.00 10 1015.6
20260502020701 18 29 0.0 0.0 0.00 0.00 0.00 10 1015.7
20260502020158 18 28 0.0 0.0 0.00 0.00 0.00 10 1015.7
20260502015656 18 51 0.0 0.0 0.00 0.00 0.00 10 1015.6
20260502015152 20 61 0.0 0.0 0.00 0.00 0.00 10 1015.5
20260502014650 20 61 0.0 0.0 0.00 0.00 0.00 10 1015.4